START_TIME,STEP,MOV.,M6,t_acc.,M7,t_acc.,M19,t_acc.,H36,t_acc.
1979-07-24 15:00:26.570 ,1,0,0.,12.0,0.,12.0,0.,12.0,0.,12.0
1979-07-24 15:00:38.570 ,1,0,0.,12.0,0.,12.0,0.,12.0,0.,12.0
1979-07-24 15:00:50.570 ,2,1,1.,12.0,0.,12.0,0.,12.0,0.,12.0
1979-07-24 15:01:02.570 ,2,1,0.,12.0,0.,12.0,0.,12.0,1.,12.0
1979-07-24 15:01:14.570 ,2,0,0.,12.0,0.,12.0,0.,12.0,0.,12.0
1979-07-24 15:01:26.570 ,2,0,0.,12.0,0.,12.0,0.,12.0,0.,12.0
1979-07-24 15:01:38.570 ,3,1,0.,12.0,0.,12.0,0.,12.0,0.,12.0
1979-07-24 15:01:50.570 ,3,1,0.,12.0,0.,12.0,0.,12.0,0.,12.0
1979-07-24 15:02:02.570 ,3,0,0.,12.0,0.,12.0,0.,12.0,0.,12.0
1979-07-24 15:02:14.570 ,3,0,0.,12.0,0.,12.0,0.,12.0,0.,12.0
1979-07-24 15:02:26.570 ,4,1,0.,12.0,0.,12.0,0.,12.0,0.,12.0
1979-07-24 15:02:38.570 ,4,1,0.,12.0,0.,12.0,0.,12.0,0.,12.0
1979-07-24 15:02:50.570 ,0,0,0.,12.0,0.,12.0,0.,12.0,0.,12.0
1979-07-24 15:03:02.570 ,0,0,0.,12.0,0.,12.0,0.,12.0,0.,12.0
1979-07-24 15:03:14.570 ,5,1,0.,12.0,0.,12.0,0.,12.0,0.,12.0
1979-07-24 15:03:26.570 ,5,1,0.,12.0,0.,12.0,0.,12.0,0.,12.0
1979-07-24 15:03:38.570 ,5,0,0.,12.0,0.,12.0,0.,12.0,0.,12.0
1979-07-24 15:03:50.570 ,5,0,0.,12.0,0.,12.0,0.,12.0,0.,12.0
1979-07-24 15:04:02.570 ,6,1,0.,12.0,0.,12.0,0.,12.0,0.,12.0
1979-07-24 15:04:14.570 ,6,1,0.,12.0,0.,12.0,0.,12.0,0.,12.0
1979-07-24 15:04:26.570 ,6,0,0.,12.0,0.,12.0,0.,12.0,0.,12.0
1979-07-24 15:04:38.570 ,6,0,0.,12.0,0.,12.0,0.,12.0,0.,12.0
1979-07-24 15:04:50.570 ,7,1,0.,12.0,0.,12.0,0.,12.0,0.,12.0
1979-07-24 15:05:02.570 ,7,1,0.,12.0,0.,12.0,0.,12.0,0.,12.0
1979-07-24 15:05:14.570 ,7,0,0.,12.0,0.,12.0,0.,12.0,0.,12.0
1979-07-24 15:05:26.570 ,7,0,0.,12.0,0.,12.0,0.,12.0,0.,12.0
1979-07-24 15:05:38.570 ,7,1,0.,12.0,0.,12.0,0.,12.0,0.,12.0
1979-07-24 15:05:50.570 ,7,1,0.,12.0,0.,12.0,0.,12.0,0.,12.0
1979-07-24 15:06:02.570 ,7,0,0.,12.0,0.,12.0,0.,12.0,0.,12.0
1979-07-24 15:06:14.570 ,7,0,0.,12.0,0.,12.0,0.,12.0,0.,12.0
1979-07-24 15:06:26.570 ,6,1,0.,12.0,0.,12.0,0.,12.0,0.,12.0
1979-07-24 15:06:38.570 ,6,1,0.,12.0,0.,12.0,0.,12.0,0.,12.0
1979-07-24 15:06:50.570 ,6,0,0.,12.0,0.,12.0,0.,12.0,0.,12.0
1979-07-24 15:07:02.570 ,6,0,0.,12.0,0.,12.0,0.,12.0,0.,12.0
1979-07-24 15:07:14.570 ,5,1,0.,12.0,0.,12.0,0.,12.0,0.,12.0
1979-07-24 15:07:26.570 ,5,1,0.,12.0,0.,12.0,0.,12.0,0.,12.0
1979-07-24 15:07:38.570 ,5,0,0.,12.0,0.,12.0,0.,12.0,0.,12.0
1979-07-24 15:07:50.570 ,5,0,0.,12.0,0.,12.0,0.,12.0,0.,12.0
1979-07-24 15:08:02.570 ,4,1,0.,12.0,0.,12.0,0.,12.0,0.,12.0
1979-07-24 15:08:14.570 ,4,1,0.,12.0,0.,12.0,0.,12.0,0.,12.0
1979-07-24 15:08:26.570 ,4,0,0.,12.0,0.,12.0,0.,12.0,0.,12.0
1979-07-24 15:08:38.570 ,4,0,0.,12.0,0.,12.0,0.,12.0,0.,12.0
1979-07-24 15:08:50.570 ,3,1,0.,12.0,0.,12.0,0.,12.0,0.,12.0
1979-07-24 15:09:02.570 ,3,1,0.,12.0,0.,12.0,0.,12.0,0.,12.0
1979-07-24 15:09:14.570 ,3,0,0.,12.0,0.,12.0,0.,12.0,0.,12.0
1979-07-24 15:09:26.570 ,3,0,0.,12.0,0.,12.0,0.,12.0,0.,12.0
1979-07-24 15:09:38.570 ,2,1,0.,12.0,0.,12.0,0.,12.0,0.,12.0
1979-07-24 15:09:50.570 ,2,1,0.,12.0,0.,12.0,0.,12.0,0.,12.0
1979-07-24 15:10:02.570 ,2,0,0.,12.0,0.,12.0,0.,12.0,0.,12.0
1979-07-24 15:10:14.570 ,2,0,0.,12.0,0.,12.0,0.,12.0,0.,12.0
1979-07-24 15:10:26.570 ,1,1,0.,12.0,0.,12.0,0.,12.0,0.,12.0
1979-07-24 15:10:38.570 ,1,1,0.,12.0,0.,12.0,0.,12.0,0.,12.0
1979-07-24 15:10:50.570 ,1,0,0.,12.0,0.,12.0,0.,12.0,0.,12.0
1979-07-24 15:11:02.570 ,1,0,0.,12.0,0.,12.0,0.,12.0,0.,12.0
1979-07-24 15:11:14.570 ,0,1,0.,12.0,0.,12.0,0.,12.0,0.,12.0
1979-07-24 15:11:26.570 ,0,1,0.,12.0,0.,12.0,0.,12.0,0.,12.0
1979-07-24 15:11:38.570 ,0,0,0.,12.0,0.,12.0,0.,12.0,0.,12.0
1979-07-24 15:11:50.570 ,0,0,0.,12.0,0.,12.0,0.,12.0,0.,12.0
1979-07-24 15:12:02.570 ,0,1,0.,12.0,0.,12.0,0.,12.0,0.,12.0
1979-07-24 15:12:14.570 ,0,1,0.,12.0,0.,12.0,0.,12.0,0.,12.0
1979-07-24 15:12:26.570 ,0,0,0.,12.0,0.,12.0,0.,12.0,0.,12.0
1979-07-24 15:12:38.570 ,0,0,0.,12.0,0.,12.0,0.,12.0,0.,12.0
1979-07-24 15:12:50.570 ,1,1,0.,12.0,0.,12.0,0.,12.0,0.,12.0
1979-07-24 15:13:02.570 ,1,1,0.,12.0,0.,12.0,0.,12.0,0.,12.0
1979-07-24 15:13:14.570 ,1,0,0.,12.0,0.,12.0,0.,12.0,0.,12.0
1979-07-24 15:13:26.570 ,1,0,0.,12.0,0.,12.0,0.,12.0,0.,12.0
1979-07-24 15:13:38.570 ,2,1,0.,12.0,0.,12.0,0.,12.0,0.,12.0
1979-07-24 15:13:50.570 ,2,1,0.,12.0,0.,12.0,0.,12.0,0.,12.0
1979-07-24 15:14:02.570 ,2,0,0.,12.0,0.,12.0,0.,12.0,0.,12.0
1979-07-24 15:14:14.570 ,2,0,0.,12.0,0.,12.0,0.,12.0,0.,12.0
1979-07-24 15:14:26.570 ,3,1,0.,12.0,0.,12.0,0.,12.0,0.,12.0
1979-07-24 15:14:38.570 ,3,1,0.,12.0,0.,12.0,0.,12.0,0.,12.0
1979-07-24 15:14:50.570 ,3,0,0.,12.0,0.,12.0,0.,12.0,0.,12.0
1979-07-24 15:15:02.570 ,3,0,0.,12.0,0.,12.0,0.,12.0,0.,12.0
1979-07-24 15:15:14.570 ,4,1,0.,12.0,0.,12.0,0.,12.0,0.,12.0
1979-07-24 15:15:26.570 ,4,1,0.,12.0,0.,12.0,0.,12.0,0.,12.0
1979-07-24 15:15:38.570 ,4,0,0.,12.0,0.,12.0,0.,12.0,0.,12.0
1979-07-24 15:15:50.570 ,4,0,0.,12.0,0.,12.0,0.,12.0,0.,12.0
1979-07-24 15:16:02.570 ,5,1,0.,12.0,0.,12.0,0.,12.0,0.,12.0
1979-07-24 15:16:14.570 ,5,1,0.,12.0,0.,12.0,0.,12.0,0.,12.0
1979-07-24 15:16:26.570 ,5,0,0.,12.0,0.,12.0,0.,12.0,0.,12.0
1979-07-24 15:16:38.570 ,5,0,0.,12.0,0.,12.0,0.,12.0,0.,12.0
1979-07-24 15:16:50.570 ,6,1,0.,12.0,0.,12.0,0.,12.0,0.,12.0
1979-07-24 15:17:02.570 ,6,1,0.,12.0,0.,12.0,0.,12.0,0.,12.0
1979-07-24 15:17:14.570 ,6,0,0.,12.0,0.,12.0,0.,12.0,0.,12.0
1979-07-24 15:17:26.570 ,6,0,0.,12.0,0.,12.0,0.,12.0,0.,12.0
1979-07-24 15:17:38.570 ,7,1,0.,12.0,0.,12.0,0.,12.0,0.,12.0
1979-07-24 15:17:50.570 ,7,1,0.,12.0,0.,12.0,0.,12.0,0.,12.0
1979-07-24 15:18:02.570 ,7,0,0.,12.0,0.,12.0,0.,12.0,0.,12.0
1979-07-24 15:18:14.570 ,7,0,0.,12.0,0.,12.0,0.,12.0,0.,12.0
1979-07-24 15:18:26.570 ,7,1,0.,12.0,0.,12.0,0.,12.0,0.,12.0
1979-07-24 15:18:38.570 ,7,1,0.,12.0,0.,12.0,0.,12.0,0.,12.0
1979-07-24 15:18:50.570 ,7,0,0.,12.0,0.,12.0,0.,12.0,0.,12.0
1979-07-24 15:19:02.570 ,7,0,0.,12.0,0.,12.0,0.,12.0,0.,12.0
1979-07-24 15:19:14.570 ,6,1,0.,12.0,0.,12.0,0.,12.0,0.,12.0
1979-07-24 15:19:26.570 ,6,1,0.,12.0,0.,12.0,0.,12.0,0.,12.0
1979-07-24 15:19:38.570 ,6,0,0.,12.0,0.,12.0,0.,12.0,0.,12.0
1979-07-24 15:19:50.570 ,6,0,0.,12.0,0.,12.0,0.,12.0,0.,12.0
1979-07-24 15:20:02.570 ,5,1,0.,12.0,0.,12.0,0.,12.0,0.,12.0
1979-07-24 15:20:14.570 ,5,1,0.,12.0,0.,12.0,0.,12.0,0.,12.0
1979-07-24 15:20:26.570 ,5,0,0.,12.0,0.,12.0,0.,12.0,0.,12.0
1979-07-24 15:20:38.570 ,5,0,0.,12.0,0.,12.0,0.,12.0,0.,12.0
1979-07-24 15:20:50.570 ,4,1,0.,12.0,0.,12.0,0.,12.0,0.,12.0
1979-07-24 15:21:02.570 ,4,1,0.,12.0,0.,12.0,0.,12.0,0.,12.0
1979-07-24 15:21:14.570 ,4,0,0.,12.0,0.,12.0,0.,12.0,0.,12.0
1979-07-24 15:21:26.570 ,4,0,0.,12.0,0.,12.0,0.,12.0,0.,12.0
1979-07-24 15:21:38.570 ,3,1,0.,12.0,0.,12.0,0.,12.0,0.,12.0
1979-07-24 15:21:50.570 ,3,1,0.,12.0,0.,12.0,0.,12.0,0.,12.0
1979-07-24 15:22:02.570 ,3,0,0.,12.0,0.,12.0,0.,12.0,0.,12.0
1979-07-24 15:22:14.570 ,3,0,0.,12.0,0.,12.0,0.,12.0,0.,12.0
1979-07-24 15:22:26.570 ,2,1,0.,12.0,0.,12.0,0.,12.0,0.,12.0
1979-07-24 15:22:38.570 ,2,1,0.,12.0,0.,12.0,0.,12.0,0.,12.0
1979-07-24 15:22:50.570 ,2,0,0.,12.0,0.,12.0,0.,12.0,0.,12.0
1979-07-24 15:23:02.570 ,2,0,0.,12.0,0.,12.0,0.,12.0,0.,12.0
1979-07-24 15:23:14.570 ,1,1,0.,12.0,0.,12.0,0.,12.0,0.,12.0
1979-07-24 15:23:26.570 ,1,1,0.,12.0,0.,12.0,0.,12.0,0.,12.0
1979-07-24 15:23:38.570 ,1,0,0.,12.0,0.,12.0,0.,12.0,0.,12.0
1979-07-24 15:23:50.570 ,1,0,0.,12.0,0.,12.0,0.,12.0,0.,12.0
1979-07-24 15:24:02.570 ,0,1,0.,12.0,0.,12.0,0.,12.0,0.,12.0
1979-07-24 15:24:14.570 ,0,1,0.,12.0,0.,12.0,0.,12.0,0.,12.0
1979-07-24 15:24:26.570 ,0,0,0.,12.0,0.,12.0,0.,12.0,0.,12.0
1979-07-24 15:24:38.570 ,0,0,0.,12.0,0.,12.0,0.,12.0,0.,12.0
1979-07-24 15:24:50.570 ,0,1,0.,12.0,0.,12.0,0.,12.0,0.,12.0
1979-07-24 15:25:02.570 ,0,1,0.,12.0,0.,12.0,0.,12.0,0.,12.0
1979-07-24 15:25:14.570 ,0,0,0.,12.0,0.,12.0,0.,12.0,0.,12.0
1979-07-24 15:25:26.570 ,0,0,0.,12.0,0.,12.0,0.,12.0,0.,12.0
1979-07-24 15:25:38.570 ,1,1,0.,12.0,0.,12.0,0.,12.0,0.,12.0
1979-07-24 15:25:50.570 ,1,1,0.,12.0,0.,12.0,0.,12.0,0.,12.0
1979-07-24 15:26:02.570 ,1,0,0.,12.0,0.,12.0,0.,12.0,0.,12.0
1979-07-24 15:26:14.570 ,1,0,0.,12.0,0.,12.0,0.,12.0,0.,12.0
1979-07-24 15:26:26.570 ,2,1,0.,12.0,0.,12.0,0.,12.0,0.,12.0
1979-07-24 15:26:38.570 ,2,1,0.,12.0,0.,12.0,0.,12.0,0.,12.0
1979-07-24 15:26:50.570 ,2,0,0.,12.0,0.,12.0,0.,12.0,0.,12.0
1979-07-24 15:27:02.570 ,2,0,0.,12.0,0.,12.0,0.,12.0,0.,12.0
1979-07-24 15:27:14.570 ,3,1,0.,12.0,0.,12.0,0.,12.0,0.,12.0
1979-07-24 15:27:26.570 ,3,1,0.,12.0,0.,12.0,0.,12.0,0.,12.0
1979-07-24 15:27:38.570 ,3,0,0.,12.0,0.,12.0,0.,12.0,0.,12.0
1979-07-24 15:27:50.570 ,3,0,0.,12.0,0.,12.0,0.,12.0,0.,12.0
1979-07-24 15:28:02.570 ,4,1,0.,12.0,0.,12.0,0.,12.0,0.,12.0
1979-07-24 15:28:14.570 ,4,1,0.,12.0,0.,12.0,0.,12.0,0.,12.0
1979-07-24 15:28:26.570 ,4,0,0.,12.0,0.,12.0,0.,12.0,0.,12.0
1979-07-24 15:28:38.570 ,4,0,0.,12.0,0.,12.0,0.,12.0,0.,12.0
1979-07-24 15:28:50.570 ,5,1,0.,12.0,0.,12.0,0.,12.0,0.,12.0
1979-07-24 15:29:02.570 ,5,1,0.,12.0,0.,12.0,0.,12.0,0.,12.0
1979-07-24 15:29:14.570 ,5,0,0.,12.0,0.,12.0,0.,12.0,0.,12.0
1979-07-24 15:29:26.570 ,5,0,0.,12.0,0.,12.0,0.,12.0,0.,12.0
1979-07-24 15:29:38.570 ,6,1,0.,12.0,0.,12.0,0.,12.0,0.,12.0
1979-07-24 15:29:50.570 ,6,1,0.,12.0,0.,12.0,0.,12.0,0.,12.0
1979-07-24 15:30:02.570 ,6,0,0.,12.0,0.,12.0,0.,12.0,0.,12.0
1979-07-24 15:30:14.570 ,6,0,0.,12.0,0.,12.0,0.,12.0,0.,12.0
1979-07-24 15:30:26.570 ,7,0,0.,12.0,0.,12.0,0.,12.0,0.,12.0
1979-07-24 15:30:38.570 ,7,0,0.,12.0,0.,12.0,0.,12.0,0.,12.0
1979-07-24 15:30:50.570 ,7,0,0.,12.0,0.,12.0,0.,12.0,0.,12.0
1979-07-24 15:31:02.570 ,7,0,0.,12.0,0.,12.0,0.,12.0,0.,12.0
1979-07-24 15:31:14.570 ,4,1,0.,12.0,0.,12.0,0.,12.0,0.,12.0
1979-07-24 15:31:26.570 ,4,1,0.,12.0,0.,12.0,0.,12.0,0.,12.0
1979-07-24 15:31:38.570 ,0,1,0.,12.0,0.,12.0,0.,12.0,0.,12.0
1979-07-24 15:31:50.570 ,0,1,0.,12.0,0.,12.0,0.,12.0,0.,12.0
1979-07-24 15:32:02.570 ,3,1,0.,12.0,0.,12.0,0.,12.0,0.,12.0
1979-07-24 15:32:14.570 ,3,1,0.,12.0,0.,12.0,0.,12.0,0.,12.0
1979-07-24 15:32:26.570 ,7,1,0.,12.0,0.,12.0,0.,12.0,0.,12.0
1979-07-24 15:32:38.570 ,7,1,0.,12.0,0.,12.0,0.,12.0,0.,12.0
1979-07-24 15:32:50.570 ,4,1,0.,12.0,0.,12.0,0.,12.0,0.,12.0
1979-07-24 15:33:02.570 ,4,1,0.,12.0,0.,12.0,0.,12.0,0.,12.0
1979-07-24 15:33:14.570 ,0,1,0.,12.0,0.,12.0,0.,12.0,0.,12.0
1979-07-24 15:33:26.570 ,0,1,0.,12.0,0.,12.0,0.,12.0,0.,12.0
1979-07-24 15:33:38.570 ,3,1,0.,12.0,0.,12.0,0.,12.0,0.,12.0
1979-07-24 15:33:50.570 ,3,1,0.,12.0,0.,12.0,0.,12.0,0.,12.0
1979-07-24 15:34:02.570 ,7,1,0.,12.0,0.,12.0,0.,12.0,0.,12.0
1979-07-24 15:34:14.570 ,7,1,0.,12.0,0.,12.0,0.,12.0,0.,12.0
1979-07-24 15:34:26.570 ,4,1,0.,12.0,0.,12.0,0.,12.0,0.,12.0
1979-07-24 15:34:38.570 ,4,1,0.,12.0,0.,12.0,0.,12.0,0.,12.0
1979-07-24 15:34:50.570 ,0,1,0.,12.0,0.,12.0,0.,12.0,0.,12.0
1979-07-24 15:35:02.570 ,0,1,0.,12.0,0.,12.0,0.,12.0,0.,12.0
1979-07-24 15:35:14.570 ,3,1,1.,12.0,0.,12.0,0.,12.0,2.,12.0
1979-07-24 15:35:26.570 ,3,1,0.,12.0,0.,12.0,0.,12.0,0.,12.0
1979-07-24 15:35:38.570 ,7,1,0.,12.0,0.,12.0,0.,12.0,0.,12.0
1979-07-24 15:35:50.570 ,7,1,0.,12.0,0.,12.0,0.,12.0,0.,12.0
1979-07-24 15:36:02.570 ,4,1,0.,12.0,0.,12.0,0.,12.0,0.,12.0
1979-07-24 15:36:14.570 ,4,1,0.,12.0,0.,12.0,0.,12.0,0.,12.0
1979-07-24 15:36:26.570 ,0,1,0.,12.0,0.,12.0,0.,12.0,0.,12.0
1979-07-24 15:36:38.570 ,0,1,0.,12.0,0.,12.0,0.,12.0,0.,12.0
1979-07-24 15:36:50.570 ,3,1,0.,12.0,0.,12.0,0.,12.0,0.,12.0
1979-07-24 15:37:02.570 ,3,1,0.,12.0,0.,12.0,0.,12.0,0.,12.0
1979-07-24 15:37:14.570 ,7,1,0.,12.0,0.,12.0,0.,12.0,0.,12.0
1979-07-24 15:37:26.570 ,7,1,0.,12.0,0.,12.0,0.,12.0,0.,12.0
1979-07-24 15:37:38.570 ,4,1,0.,12.0,0.,12.0,0.,12.0,0.,12.0
1979-07-24 15:37:50.570 ,4,1,0.,12.0,0.,12.0,0.,12.0,0.,12.0
1979-07-24 15:38:02.570 ,0,1,0.,12.0,0.,12.0,0.,12.0,0.,12.0
1979-07-24 15:38:14.570 ,0,1,0.,12.0,0.,12.0,0.,12.0,1.,12.0
1979-07-24 15:38:26.570 ,3,1,0.,12.0,0.,12.0,0.,12.0,0.,12.0
1979-07-24 15:38:38.570 ,3,1,0.,12.0,0.,12.0,0.,12.0,0.,12.0
1979-07-24 15:38:50.570 ,7,1,0.,12.0,0.,12.0,0.,12.0,0.,12.0
1979-07-24 15:39:02.570 ,7,1,0.,12.0,0.,12.0,0.,12.0,0.,12.0
1979-07-24 15:39:14.570 ,4,1,0.,12.0,0.,12.0,0.,12.0,0.,12.0
1979-07-24 15:39:26.570 ,4,1,0.,12.0,0.,12.0,0.,12.0,0.,12.0
1979-07-24 15:39:38.570 ,0,1,0.,12.0,0.,12.0,0.,12.0,0.,12.0
1979-07-24 15:39:50.570 ,0,1,0.,12.0,0.,12.0,0.,12.0,0.,12.0
1979-07-24 15:40:02.570 ,3,1,0.,12.0,0.,12.0,0.,12.0,0.,12.0
1979-07-24 15:40:14.570 ,3,1,0.,12.0,0.,12.0,0.,12.0,0.,12.0
1979-07-24 15:40:26.570 ,7,1,0.,12.0,0.,12.0,0.,12.0,0.,12.0
1979-07-24 15:40:38.570 ,7,1,0.,12.0,0.,12.0,0.,12.0,0.,12.0
1979-07-24 15:40:50.570 ,4,1,0.,12.0,0.,12.0,0.,12.0,0.,12.0
1979-07-24 15:41:02.570 ,4,1,0.,12.0,0.,12.0,0.,12.0,0.,12.0
1979-07-24 15:41:14.570 ,0,1,0.,12.0,0.,12.0,0.,12.0,0.,12.0
1979-07-24 15:41:26.570 ,0,1,0.,12.0,0.,12.0,0.,12.0,0.,12.0
1979-07-24 15:41:38.570 ,0,0,0.,12.0,0.,12.0,0.,12.0,0.,12.0
1979-07-24 15:41:50.570 ,0,0,0.,12.0,0.,12.0,0.,12.0,0.,12.0
1979-07-24 15:42:02.570 ,0,0,0.,12.0,0.,12.0,0.,12.0,0.,12.0
1979-07-24 15:42:14.570 ,0,0,0.,12.0,0.,12.0,0.,12.0,0.,12.0
1979-07-24 15:42:26.570 ,5,1,0.,12.0,0.,12.0,0.,12.0,0.,12.0
1979-07-24 15:42:38.570 ,5,1,0.,12.0,0.,12.0,0.,12.0,0.,12.0
1979-07-24 15:42:50.570 ,5,0,0.,12.0,0.,12.0,0.,12.0,0.,12.0
1979-07-24 15:43:02.570 ,5,0,0.,12.0,0.,12.0,0.,12.0,0.,12.0
1979-07-24 15:43:14.570 ,4,1,0.,12.0,0.,12.0,0.,12.0,0.,12.0
1979-07-24 15:43:26.570 ,4,1,0.,12.0,0.,12.0,0.,12.0,0.,12.0
1979-07-24 15:43:38.570 ,4,0,0.,12.0,0.,12.0,0.,12.0,0.,12.0
1979-07-24 15:43:50.570 ,4,0,0.,12.0,0.,12.0,0.,12.0,0.,12.0
1979-07-24 15:44:02.570 ,3,1,0.,12.0,0.,12.0,0.,12.0,0.,12.0
1979-07-24 15:44:14.570 ,3,1,0.,12.0,0.,12.0,0.,12.0,0.,12.0
1979-07-24 15:44:26.570 ,3,0,0.,12.0,0.,12.0,0.,12.0,0.,12.0
1979-07-24 15:44:38.570 ,3,0,0.,12.0,0.,12.0,0.,12.0,0.,12.0
1979-07-24 15:44:50.570 ,2,1,0.,12.0,0.,12.0,0.,12.0,0.,12.0
1979-07-24 15:45:02.570 ,2,1,0.,12.0,0.,12.0,0.,12.0,0.,12.0
1979-07-24 15:45:14.570 ,2,0,0.,12.0,0.,12.0,0.,12.0,0.,12.0
1979-07-24 15:45:26.570 ,2,0,0.,12.0,0.,12.0,0.,12.0,0.,12.0
1979-07-24 15:45:38.570 ,1,1,0.,12.0,0.,12.0,0.,12.0,0.,12.0
1979-07-24 15:45:50.570 ,1,1,0.,12.0,0.,12.0,0.,12.0,0.,12.0
1979-07-24 15:46:02.570 ,1,0,0.,12.0,0.,12.0,0.,12.0,0.,12.0
1979-07-24 15:46:14.570 ,1,0,0.,12.0,0.,12.0,0.,12.0,0.,12.0
1979-07-24 15:46:26.570 ,0,1,0.,12.0,0.,12.0,0.,12.0,0.,12.0
1979-07-24 15:46:38.570 ,0,1,0.,12.0,0.,12.0,0.,12.0,0.,12.0
1979-07-24 15:46:50.570 ,0,0,0.,12.0,0.,12.0,0.,12.0,0.,12.0
1979-07-24 15:47:02.570 ,0,0,0.,12.0,0.,12.0,0.,12.0,0.,12.0
1979-07-24 15:47:14.570 ,0,1,0.,12.0,0.,12.0,0.,12.0,0.,12.0
1979-07-24 15:47:26.570 ,0,1,0.,12.0,0.,12.0,0.,12.0,0.,12.0
1979-07-24 15:47:38.570 ,0,0,0.,12.0,0.,12.0,0.,12.0,0.,12.0
1979-07-24 15:47:50.570 ,0,0,0.,12.0,0.,12.0,0.,12.0,0.,12.0
1979-07-24 15:48:02.570 ,1,1,0.,12.0,0.,12.0,0.,12.0,0.,12.0
1979-07-24 15:48:14.570 ,1,1,0.,12.0,0.,12.0,0.,12.0,0.,12.0
1979-07-24 15:48:26.570 ,1,0,0.,12.0,0.,12.0,0.,12.0,0.,12.0
1979-07-24 15:48:38.570 ,1,0,0.,12.0,0.,12.0,0.,12.0,0.,12.0
1979-07-24 15:48:50.570 ,2,1,0.,12.0,0.,12.0,0.,12.0,0.,12.0
1979-07-24 15:49:02.570 ,2,1,0.,12.0,0.,12.0,0.,12.0,0.,12.0
1979-07-24 15:49:14.570 ,2,0,0.,12.0,0.,12.0,0.,12.0,0.,12.0
1979-07-24 15:49:26.570 ,2,0,0.,12.0,0.,12.0,0.,12.0,0.,12.0
1979-07-24 15:49:38.570 ,3,1,0.,12.0,0.,12.0,0.,12.0,0.,12.0
1979-07-24 15:49:50.570 ,3,1,0.,12.0,0.,12.0,0.,12.0,0.,12.0
1979-07-24 15:50:02.570 ,3,0,0.,12.0,0.,12.0,0.,12.0,0.,12.0
1979-07-24 15:50:14.570 ,3,0,0.,12.0,0.,12.0,0.,12.0,0.,12.0
1979-07-24 15:50:26.570 ,4,1,0.,12.0,0.,12.0,0.,12.0,0.,12.0
1979-07-24 15:50:38.570 ,4,1,0.,12.0,0.,12.0,0.,12.0,0.,12.0
1979-07-24 15:50:50.570 ,4,0,0.,12.0,0.,12.0,0.,12.0,0.,12.0
1979-07-24 15:51:02.570 ,4,0,0.,12.0,0.,12.0,0.,12.0,0.,12.0
1979-07-24 15:51:14.570 ,5,1,0.,12.0,0.,12.0,0.,12.0,0.,12.0
1979-07-24 15:51:26.570 ,5,1,0.,12.0,0.,12.0,0.,12.0,0.,12.0
1979-07-24 15:51:38.570 ,5,0,0.,12.0,0.,12.0,0.,12.0,0.,12.0
1979-07-24 15:51:50.570 ,5,0,0.,12.0,0.,12.0,0.,12.0,0.,12.0
1979-07-24 15:52:02.570 ,6,1,0.,12.0,0.,12.0,0.,12.0,0.,12.0
1979-07-24 15:52:14.570 ,6,1,0.,12.0,0.,12.0,0.,12.0,0.,12.0
1979-07-24 15:52:26.570 ,6,0,0.,12.0,0.,12.0,0.,12.0,0.,12.0
1979-07-24 15:52:38.570 ,6,0,0.,12.0,0.,12.0,0.,12.0,0.,12.0
1979-07-24 15:52:50.570 ,7,1,0.,12.0,0.,12.0,0.,12.0,0.,12.0
1979-07-24 15:53:02.570 ,7,1,0.,12.0,0.,12.0,0.,12.0,0.,12.0
1979-07-24 15:53:14.570 ,7,0,0.,12.0,0.,12.0,0.,12.0,0.,12.0
1979-07-24 15:53:26.570 ,7,0,0.,12.0,0.,12.0,0.,12.0,0.,12.0
1979-07-24 15:53:38.570 ,7,1,0.,12.0,0.,12.0,0.,12.0,0.,12.0
1979-07-24 15:53:50.570 ,7,1,0.,12.0,0.,12.0,0.,12.0,0.,12.0
1979-07-24 15:54:02.570 ,7,0,0.,12.0,0.,12.0,0.,12.0,0.,12.0
1979-07-24 15:54:14.570 ,7,0,0.,12.0,0.,12.0,0.,12.0,0.,12.0
1979-07-24 15:54:26.570 ,6,1,0.,12.0,0.,12.0,0.,12.0,0.,12.0
1979-07-24 15:54:38.570 ,6,1,0.,12.0,0.,12.0,0.,12.0,0.,12.0
1979-07-24 15:54:50.570 ,6,0,0.,12.0,0.,12.0,0.,12.0,0.,12.0
1979-07-24 15:55:02.570 ,6,0,0.,12.0,0.,12.0,0.,12.0,0.,12.0
1979-07-24 15:55:14.570 ,5,1,0.,12.0,0.,12.0,0.,12.0,0.,12.0
1979-07-24 15:55:26.570 ,5,1,0.,12.0,0.,12.0,0.,12.0,0.,12.0
1979-07-24 15:55:38.570 ,5,0,0.,12.0,0.,12.0,0.,12.0,0.,12.0
1979-07-24 15:55:50.570 ,5,0,0.,12.0,0.,12.0,0.,12.0,0.,12.0
1979-07-24 15:56:02.570 ,4,1,0.,12.0,0.,12.0,0.,12.0,0.,12.0
1979-07-24 15:56:14.570 ,4,1,0.,12.0,0.,12.0,0.,12.0,0.,12.0
1979-07-24 15:56:26.570 ,4,0,0.,12.0,0.,12.0,0.,12.0,0.,12.0
1979-07-24 15:56:38.570 ,4,0,0.,12.0,0.,12.0,0.,12.0,0.,12.0
1979-07-24 15:56:50.570 ,3,1,0.,12.0,0.,12.0,0.,12.0,0.,12.0
1979-07-24 15:57:02.570 ,3,1,0.,12.0,0.,12.0,0.,12.0,0.,12.0
1979-07-24 15:57:14.570 ,3,0,0.,12.0,0.,12.0,0.,12.0,0.,12.0
1979-07-24 15:57:26.570 ,3,0,0.,12.0,0.,12.0,0.,12.0,0.,12.0
1979-07-24 15:57:38.570 ,2,1,0.,12.0,0.,12.0,0.,12.0,0.,12.0
1979-07-24 15:57:50.570 ,2,1,0.,12.0,0.,12.0,0.,12.0,0.,12.0
1979-07-24 15:58:02.570 ,2,0,0.,12.0,0.,12.0,0.,12.0,0.,12.0
1979-07-24 15:58:14.570 ,2,0,0.,12.0,0.,12.0,0.,12.0,0.,12.0
1979-07-24 15:58:26.570 ,1,1,0.,12.0,0.,12.0,0.,12.0,0.,12.0
1979-07-24 15:58:38.570 ,1,1,0.,12.0,0.,12.0,0.,12.0,0.,12.0
1979-07-24 15:58:50.570 ,1,0,0.,12.0,0.,12.0,0.,12.0,0.,12.0
1979-07-24 15:59:02.570 ,1,0,0.,12.0,0.,12.0,0.,12.0,0.,12.0
1979-07-24 15:59:14.570 ,0,1,0.,12.0,0.,12.0,0.,12.0,0.,12.0
1979-07-24 15:59:26.570 ,0,1,0.,12.0,0.,12.0,0.,12.0,0.,12.0
1979-07-24 15:59:38.570 ,0,0,0.,12.0,0.,12.0,0.,12.0,1.,12.0
1979-07-24 15:59:50.570 ,0,0,0.,12.0,0.,12.0,0.,12.0,0.,12.0
1979-07-24 16:00:02.570 ,0,1,0.,12.0,0.,12.0,0.,12.0,0.,12.0
1979-07-24 16:00:14.570 ,0,1,0.,12.0,0.,12.0,0.,12.0,0.,12.0
1979-07-24 16:00:26.570 ,0,0,0.,12.0,0.,12.0,0.,12.0,1.,12.0
1979-07-24 16:00:38.570 ,0,0,0.,12.0,0.,12.0,0.,12.0,0.,12.0
1979-07-24 16:00:50.570 ,1,1,0.,12.0,0.,12.0,0.,12.0,0.,12.0
1979-07-24 16:01:02.570 ,1,1,0.,12.0,0.,12.0,0.,12.0,0.,12.0
1979-07-24 16:01:14.570 ,1,0,0.,12.0,0.,12.0,0.,12.0,0.,12.0
1979-07-24 16:01:26.570 ,1,0,0.,12.0,0.,12.0,0.,12.0,0.,12.0
1979-07-24 16:01:38.570 ,2,1,0.,12.0,0.,12.0,0.,12.0,0.,12.0
1979-07-24 16:01:50.570 ,2,1,0.,12.0,0.,12.0,0.,12.0,0.,12.0
1979-07-24 16:02:02.570 ,2,0,0.,12.0,0.,12.0,0.,12.0,0.,12.0
1979-07-24 16:02:14.570 ,2,0,0.,12.0,0.,12.0,0.,12.0,0.,12.0
1979-07-24 16:02:26.570 ,3,1,0.,12.0,0.,12.0,0.,12.0,0.,12.0
1979-07-24 16:02:38.570 ,3,1,0.,12.0,0.,12.0,0.,12.0,0.,12.0
1979-07-24 16:02:50.570 ,3,0,0.,12.0,0.,12.0,0.,12.0,0.,12.0
1979-07-24 16:03:02.570 ,3,0,0.,12.0,0.,12.0,0.,12.0,0.,12.0
1979-07-24 16:03:14.570 ,4,1,0.,12.0,0.,12.0,0.,12.0,0.,12.0
1979-07-24 16:03:26.570 ,4,1,0.,12.0,0.,12.0,0.,12.0,0.,12.0
1979-07-24 16:03:38.570 ,4,0,0.,12.0,0.,12.0,0.,12.0,0.,12.0
1979-07-24 16:03:50.570 ,4,0,0.,12.0,0.,12.0,0.,12.0,0.,12.0
1979-07-24 16:04:02.570 ,5,1,0.,12.0,0.,12.0,0.,12.0,0.,12.0
1979-07-24 16:04:14.570 ,5,1,0.,12.0,0.,12.0,0.,12.0,0.,12.0
1979-07-24 16:04:26.570 ,5,0,0.,12.0,0.,12.0,0.,12.0,0.,12.0
1979-07-24 16:04:38.570 ,5,0,0.,12.0,0.,12.0,0.,12.0,0.,12.0
1979-07-24 16:04:50.570 ,6,1,0.,12.0,0.,12.0,0.,12.0,0.,12.0
1979-07-24 16:05:02.570 ,6,1,0.,12.0,0.,12.0,0.,12.0,0.,12.0
1979-07-24 16:05:14.570 ,6,0,0.,12.0,0.,12.0,0.,12.0,0.,12.0
1979-07-24 16:05:26.570 ,6,0,0.,12.0,0.,12.0,0.,12.0,0.,12.0
1979-07-24 16:05:38.570 ,7,1,0.,12.0,0.,12.0,0.,12.0,0.,12.0
1979-07-24 16:05:50.570 ,7,1,0.,12.0,0.,12.0,0.,12.0,0.,12.0
1979-07-24 16:06:02.570 ,7,0,0.,12.0,0.,12.0,0.,12.0,0.,12.0
1979-07-24 16:06:14.570 ,7,0,0.,12.0,0.,12.0,0.,12.0,0.,12.0
1979-07-24 16:06:26.570 ,7,1,0.,12.0,0.,12.0,0.,12.0,0.,12.0
1979-07-24 16:06:38.570 ,7,1,0.,12.0,0.,12.0,0.,12.0,0.,12.0
1979-07-24 16:06:50.570 ,7,0,0.,12.0,0.,12.0,0.,12.0,0.,12.0
1979-07-24 16:07:02.570 ,7,0,0.,12.0,0.,12.0,0.,12.0,0.,12.0
1979-07-24 16:07:14.570 ,6,1,0.,12.0,0.,12.0,0.,12.0,0.,12.0
1979-07-24 16:07:26.570 ,6,1,0.,12.0,0.,12.0,0.,12.0,0.,12.0
1979-07-24 16:07:38.570 ,6,0,0.,12.0,0.,12.0,0.,12.0,0.,12.0
1979-07-24 16:07:50.570 ,6,0,0.,12.0,0.,12.0,0.,12.0,0.,12.0
1979-07-24 16:08:02.570 ,5,1,0.,12.0,0.,12.0,0.,12.0,0.,12.0
1979-07-24 16:08:14.570 ,5,1,0.,12.0,0.,12.0,0.,12.0,0.,12.0
1979-07-24 16:08:26.570 ,5,0,0.,12.0,0.,12.0,0.,12.0,0.,12.0
1979-07-24 16:08:38.570 ,5,0,0.,12.0,0.,12.0,0.,12.0,0.,12.0
1979-07-24 16:08:50.570 ,4,1,0.,12.0,0.,12.0,0.,12.0,0.,12.0
1979-07-24 16:09:02.570 ,4,1,0.,12.0,0.,12.0,0.,12.0,0.,12.0
1979-07-24 16:09:14.570 ,4,0,0.,12.0,0.,12.0,0.,12.0,0.,12.0
1979-07-24 16:09:26.570 ,4,0,0.,12.0,0.,12.0,0.,12.0,0.,12.0
1979-07-24 16:09:38.570 ,3,1,0.,12.0,0.,12.0,0.,12.0,0.,12.0
1979-07-24 16:09:50.570 ,3,1,0.,12.0,0.,12.0,0.,12.0,0.,12.0
1979-07-24 16:10:02.570 ,3,0,0.,12.0,0.,12.0,0.,12.0,0.,12.0
1979-07-24 16:10:14.570 ,3,0,0.,12.0,0.,12.0,0.,12.0,0.,12.0
1979-07-24 16:10:26.570 ,2,1,0.,12.0,0.,12.0,0.,12.0,0.,12.0
1979-07-24 16:10:38.570 ,2,1,0.,12.0,0.,12.0,0.,12.0,0.,12.0
1979-07-24 16:10:50.570 ,2,0,0.,12.0,0.,12.0,0.,12.0,0.,12.0
1979-07-24 16:11:02.570 ,2,0,0.,12.0,0.,12.0,0.,12.0,0.,12.0
1979-07-24 16:11:14.570 ,1,1,0.,12.0,0.,12.0,0.,12.0,0.,12.0
1979-07-24 16:11:26.570 ,1,1,0.,12.0,0.,12.0,0.,12.0,0.,12.0
1979-07-24 16:11:38.570 ,1,0,0.,12.0,0.,12.0,0.,12.0,0.,12.0
1979-07-24 16:11:50.570 ,1,0,0.,12.0,0.,12.0,0.,12.0,0.,12.0
1979-07-24 16:12:02.570 ,0,1,0.,12.0,0.,12.0,0.,12.0,0.,12.0
1979-07-24 16:12:14.570 ,0,1,0.,12.0,0.,12.0,0.,12.0,0.,12.0
1979-07-24 16:12:26.570 ,0,0,0.,12.0,0.,12.0,0.,12.0,0.,12.0
1979-07-24 16:12:38.570 ,0,0,0.,12.0,0.,12.0,0.,12.0,0.,12.0
1979-07-24 16:12:50.570 ,0,1,0.,12.0,0.,12.0,0.,12.0,0.,12.0
1979-07-24 16:13:02.570 ,0,1,0.,12.0,0.,12.0,0.,12.0,1.,12.0
1979-07-24 16:13:14.570 ,0,0,0.,12.0,0.,12.0,0.,12.0,0.,12.0
1979-07-24 16:13:26.570 ,0,0,0.,12.0,0.,12.0,0.,12.0,1.,12.0
1979-07-24 16:13:38.570 ,1,1,1.,12.0,0.,12.0,0.,12.0,0.,12.0
1979-07-24 16:13:50.570 ,1,1,0.,12.0,0.,12.0,0.,12.0,0.,12.0
1979-07-24 16:14:02.570 ,1,0,0.,12.0,0.,12.0,0.,12.0,0.,12.0
1979-07-24 16:14:14.570 ,1,0,0.,12.0,0.,12.0,0.,12.0,0.,12.0
1979-07-24 16:14:26.570 ,2,1,0.,12.0,0.,12.0,0.,12.0,0.,12.0
1979-07-24 16:14:38.570 ,2,1,0.,12.0,0.,12.0,0.,12.0,0.,12.0
1979-07-24 16:14:50.570 ,2,0,0.,12.0,0.,12.0,0.,12.0,0.,12.0
1979-07-24 16:15:02.570 ,2,0,0.,12.0,0.,12.0,0.,12.0,0.,12.0
1979-07-24 16:15:14.570 ,3,1,0.,12.0,0.,12.0,0.,12.0,1.,12.0
1979-07-24 16:15:26.570 ,3,1,0.,12.0,0.,12.0,0.,12.0,0.,12.0
1979-07-24 16:15:38.570 ,3,0,0.,12.0,0.,12.0,0.,12.0,0.,12.0
1979-07-24 16:15:50.570 ,3,0,0.,12.0,0.,12.0,0.,12.0,0.,12.0
1979-07-24 16:16:02.570 ,4,1,0.,12.0,0.,12.0,0.,12.0,0.,12.0
1979-07-24 16:16:14.570 ,4,1,0.,12.0,0.,12.0,0.,12.0,0.,12.0
1979-07-24 16:16:26.570 ,4,0,0.,12.0,0.,12.0,0.,12.0,0.,12.0
1979-07-24 16:16:38.570 ,4,0,0.,12.0,0.,12.0,0.,12.0,0.,12.0
1979-07-24 16:16:50.570 ,5,1,0.,12.0,0.,12.0,0.,12.0,0.,12.0
1979-07-24 16:17:02.570 ,5,1,0.,12.0,0.,12.0,0.,12.0,0.,12.0
1979-07-24 16:17:14.570 ,5,0,0.,12.0,0.,12.0,0.,12.0,0.,12.0
1979-07-24 16:17:26.570 ,5,0,0.,12.0,0.,12.0,0.,12.0,0.,12.0